Content
SEND FEEDBACK

Daily
Averages
Monthly
Summary
United States of America

ST. LOUIS, MISSOURI


Home > North America > United States > Missouri
Elevation: 535 feet     Latitude: 38 45N     Longitude: 090 22W

WEATHER
 
SELECT A DAY
Number of Records: 196,318;   Date Range: 1/1/95 - 7/23/14
 
SHARE

PRINT THIS DATA

[ ← Previous Day ]
WEATHER ALMANAC - APRIL 23, 2013
[ Next Day → ]
[ °C ]   °F
Weather ElementAverageHighLow
Temperature48.7 °F59 °F (1:54 pm)39.2 °F (10:56 pm)
Dewpoint44.9 °F55 °F (1:54 pm)37 °F (10:54 pm)
Humidity86.9 %94 % (10:51 am)64 % (4:54 am)
Barometer29.96 in30.05 in (10:54 pm)29.90 in (1:54 pm)
Wind Speed6.4 mph15 mph (5:39 pm)
Wind Gust21.9 mph (3:54 pm)
Weather ElementAverage
Visibility7.1 mi
Wind DirectionSSW (197.4 °)

Weather ElementTotal
Precipitation0.81 in
Heating Degree Days15.9 (Base 65)
Averaged from 35 records on April 23, 2013
WEATHER CONDITIONS BREAKOUT
WIND DIRECTION BREAKOUT
WEATHER BY HOUR - APRIL 23, 2013
[ °C ]   °F
Local TimeTemperatureDewpointHumidityBarometerVisibilityWind DirectionWind SpeedGust SpeedPrecipitationEventsConditions
1:54 AM53.1 °F46.0 °F77 %29.98 in10.0 miCalmPartly Cloudy
2:54 AM53.1 °F46.9 °F80 %29.98 in10.0 miCalmMostly Cloudy
3:54 AM54.0 °F46.9 °F77 %29.96 in10.0 miCalmOvercast
4:54 AM57.0 °F45.0 °F64 %29.93 in10.0 miCalmClear
5:54 AM53.1 °F48.0 °F83 %29.93 in10.0 miCalmClear
6:54 AM53.1 °F48.0 °F83 %29.94 in10.0 miCalmOvercast
7:18 AM53.6 °F50.0 °F88 %29.96 in10.0 miWNW (290°)4.6 mph0.00 inRainLight Rain
7:54 AM54.0 °F50.0 °F86 %29.99 in3.0 miCalm0.04 inRainLight Rain
8:54 AM54.0 °F51.1 °F90 %30.00 in3.0 miCalm0.08 inRainLight Rain
9:54 AM54.0 °F52.0 °F93 %30.01 in2.0 miCalm0.11 inRainRain
10:51 AM55.4 °F53.6 °F94 %29.96 in6.0 miESE (120°)5.8 mph0.06 inOvercast
10:54 AM55.9 °F53.1 °F90 %29.96 in6.0 miSE (130°)5.8 mph0.06 inOvercast
11:54 AM57.0 °F54.0 °F89 %29.93 in5.0 miEast (80°)4.6 mph0.04 inOvercast
12:24 PM57.2 °F53.6 °F88 %29.92 in5.0 miEast (100°)3.5 mphOvercast
12:54 PM57.9 °F54.0 °F87 %29.91 in7.0 miCalmOvercast
1:54 PM59.0 °F55.0 °F87 %29.90 in6.0 miSSW (210°)5.8 mph0.00 inRainLight Rain
2:11 PM57.2 °F53.6 °F88 %29.90 in6.0 miSSW (210°)3.5 mph0.00 inOvercast
2:54 PM57.9 °F54.0 °F87 %29.90 in6.0 miWest (270°)4.6 mph0.01 inRainLight Rain
3:54 PM46.0 °F42.1 °F86 %29.93 in5.0 miNW (310°)12.7 mph21.9 mph0.02 inRainLight Rain
4:04 PM44.6 °F42.8 °F93 %29.92 in10.0 miNW (320°)12.7 mph19.6 mph0.00 inRain-ThunderstormLight Rain
4:19 PM44.6 °F41.0 °F87 %29.92 in10.0 miNNW (330°)10.4 mph0.00 inThunderstormOvercast
4:54 PM43.0 °F39.9 °F89 %29.92 in4.0 miNNW (330°)12.7 mph21.9 mph0.00 inRain-ThunderstormLight Rain
5:05 PM42.8 °F39.2 °F87 %29.93 in2.0 miNNW (330°)12.7 mph0.01 inRainLight Rain
5:39 PM42.8 °F39.2 °F87 %29.93 in4.0 miNW (320°)15.0 mph20.7 mph0.05 inRainRain
5:54 PM42.1 °F37.9 °F85 %29.94 in10.0 miNNW (330°)11.5 mph0.05 inRainLight Rain
6:54 PM42.1 °F37.9 °F85 %29.95 in7.0 miNNW (340°)10.4 mph0.04 inRainLight Rain
7:54 PM41.0 °F37.9 °F89 %29.99 in4.0 miNW (310°)6.9 mph0.08 inRainRain
8:54 PM41.0 °F37.9 °F89 %30.00 in8.0 miNW (320°)13.8 mph0.04 inRainLight Rain
9:54 PM41.0 °F37.9 °F89 %30.02 in10.0 miNNW (330°)10.4 mph0.03 inOvercast
10:27 PM41.0 °F37.4 °F87 %30.02 in4.0 miNW (320°)5.8 mph0.03 inRainRain
10:54 PM39.9 °F37.0 °F89 %30.05 in9.0 miNW (310°)11.5 mph0.04 inRainLight Rain
10:56 PM39.2 °F37.4 °F93 %30.04 in10.0 miNW (310°)10.4 mph0.00 inRainLight Rain
11:12 PM39.2 °F37.4 °F93 %30.04 in8.0 miNW (320°)10.4 mph0.00 inRainLight Rain
11:51 PM39.2 °F37.4 °F93 %30.03 in10.0 miNNW (340°)9.2 mph0.01 inOvercast
11:54 PM39.9 °F37.0 °F89 %30.04 in10.0 miNNW (330°)10.4 mph0.01 inOvercast
Hourly data recorded from KSUS, located miles away from St. Louis, Missouri







STORIES FROM OUR PARTNERS